Main page
METAR-TAF:

METAR-TAF

Airports :

Maringá Regional Airport

Maringá, Paraná, Brazil

latitude: 23-25S, longitude: 051-57W, elevation: 542 m

Current weather observation

The report was made 4 hours and 18 minutes ago, at 06:00 UTC
Calm wind
Temperature 21°C
Humidity 94%
Pressure 1007 hPa
Visibility 10 km or more
no clouds below 1500 m and no cumulonimbus

METAR: SBMG 140600Z 00000KT CAVOK 21/20 Q1007

Time: 08:18 (10:18 UTC)


TAF: missing

Weather observations and forecasts of more than 4000 airports (METAR and TAF reports).

The available stations are represented by yellow and red dots on the map.

Hover mouse over dot to see the name of the station.

Then click to see weather observations and forecasts.

To change the map : click on the green buttons with a black cross to zoom in, on the green button with a dash to zoom out, or on the green arrows for adjacent maps.


METAR-TAF: